TITAN 3C TRANSTAGE DEB, 27722

Orbit data source: Space-Track

TITAN 3C TRANSTAGE DEB, 27722 is space debris in HEO originally from a launch on Tue, 21 Dec 1965 UTC launched from the Air Force Eastern Test Range (AFETR). Debris objects in space refer to the collection of defunct objects orbiting the Earth. Examples of debris include non-operational satellites, rocket bodies, and fragments generated from explosions, collisions, or faulty payload assembly.

Loading next visibility...
Identifier
27722, 1965-108BC
Orbit
HEO
Country
Flag of USUS
Related business
Manufacturer
Unknown
Mission
Spacecraft
Bus & Motor
Unknown
Mass
Unknown
Launch date (UTC)
1965-12-21 (61 years ago)
Launch vehicle
Unknown
Launch site
Air Force Eastern Test Range (AFETR)
Object type
Payload
Rocket body
Debris
Shape & HBR
Unknown shape, 0.2 m
Radar Cross Section
Medium (>0.1 m² and <1 m²)

Expand to show TLE details & history
Last TLE update: 8 months ago

TLE from 8 months ago
0 TITAN 3C TRANSTAGE DEB
1 27722U 65108BC  25297.38678725 -.00000060  00000-0  00000-0 0  9998
2 27722  26.5884 192.6689 6643158 212.5192 352.3836  2.54244475216636
Epoch: 2025-10-24T09:16Z
TLE epoch observation values (Epoch: 2025-10-24T09:16:58.418Z)
Latitude
6.1999°
Longitude
-171.98961°
Altitude
2,292.14 km
Speed
8.624 km/s
True Right ascension
00h 01m 08s
True Declination
6° 10' 11"
Sunlit
Object was in full shadow at epoch
Visualization orbit readout
Latitude
Unknown
Longitude
Unknown
Altitude
Unknown
Speed
Unknown
Apparent Right ascension
Unknown
Apparent Declination
Unknown
Sunlit
N/A
Visualization observer readout
Local Sidereal Time
19:26:23
Azimuth
Unknown
Elevation
Unknown
Doppler factor
Unknown
Orbital elements
Apogee altitude
31,367.417 km
Perigee altitude
1,234.953 km
Semi-major axis
22,679.322 km
Eccentricity
0.66432
Inclination
26.5884°
RAAN
192.6689°
Arg. of periapsis
212.5192°
True anomaly
313.82888°
Mean anomaly
352.3836°
Eccentric anomaly
338.32644°
Mean motion
0.63547 °/min
Orbital period
566.51 mins
BSTAR
0
Loading maneuver chart data...
Computing Atmospheric mass density...

Documentation

Showing up to 5 results
|